| time (UTC) | temp F | wind direction | speed knots | gust knots | rain 1hr in | rain 24hr in | rain mn in | humidity % | barometer mb |
| 20260506025522 | 61 | 338 | 1.7 | 7.8 | 0.00 | 0.00 | 0.00 | 80 | 1009.2 |
| 20260506025018 | 62 | 0 | 1.7 | 7.8 | 0.00 | 0.00 | 0.00 | 80 | 1009.2 |
| 20260506024539 | 62 | 319 | 1.7 | 7.8 | 0.00 | 0.00 | 0.00 | 80 | 1009.2 |
| 20260506024018 | 62 | 335 | 2.6 | 7.8 | 0.00 | 0.00 | 0.00 | 80 | 1009.0 |
| 20260506023520 | 62 | 328 | 1.7 | 8.7 | 0.00 | 0.00 | 0.00 | 80 | 1009.0 |
| 20260506023041 | 62 | 0 | 1.7 | 8.7 | 0.00 | 0.00 | 0.00 | 80 | 1008.8 |
| 20260506022523 | 62 | 330 | 1.7 | 8.7 | 0.00 | 0.00 | 0.00 | 79 | 1008.7 |
| 20260506022019 | 63 | 0 | 1.7 | 8.7 | 0.00 | 0.00 | 0.00 | 79 | 1008.7 |
| 20260506021536 | 63 | 331 | 1.7 | 12.2 | 0.00 | 0.00 | 0.00 | 78 | 1008.5 |
| 20260506021020 | 64 | 355 | 2.6 | 12.2 | 0.00 | 0.00 | 0.00 | 78 | 1008.4 |
| 20260506020518 | 64 | 333 | 6.1 | 12.2 | 0.00 | 0.00 | 0.00 | 78 | 1008.2 |
| 20260506020039 | 64 | 350 | 0.9 | 5.2 | 0.00 | 0.00 | 0.00 | 78 | 1008.1 |
| 20260506015519 | 65 | 0 | 0.9 | 5.2 | 0.00 | 0.00 | 0.00 | 78 | 1008.0 |
| 20260506015019 | 65 | 319 | 1.7 | 6.1 | 0.00 | 0.00 | 0.00 | 78 | 1007.7 |
| 20260506014534 | 65 | 342 | 1.7 | 6.1 | 0.00 | 0.00 | 0.00 | 77 | 1007.6 |
| 20260506014018 | 65 | 333 | 0.0 | 5.2 | 0.00 | 0.00 | 0.00 | 77 | 1007.6 |
| 20260506013520 | 65 | 0 | 0.0 | 5.2 | 0.00 | 0.00 | 0.00 | 77 | 1007.5 |
| 20260506013040 | 65 | 328 | 1.7 | 7.0 | 0.00 | 0.00 | 0.00 | 77 | 1007.2 |
| 20260506012519 | 65 | 0 | 0.0 | 7.0 | 0.00 | 0.00 | 0.00 | 76 | 1007.0 |
| 20260506012021 | 65 | 326 | 0.9 | 7.0 | 0.00 | 0.00 | 0.00 | 76 | 1007.0 |
| 20260506011600 | 66 | 0 | 1.7 | 7.0 | 0.00 | 0.00 | 0.00 | 75 | 1006.9 |
| 20260506011019 | 66 | 331 | 0.9 | 11.3 | 0.00 | 0.00 | 0.00 | 76 | 1006.6 |
| 20260506010517 | 66 | 0 | 3.5 | 11.3 | 0.00 | 0.00 | 0.00 | 75 | 1006.4 |
| 20260506010037 | 66 | 269 | 3.5 | 13.9 | 0.00 | 0.00 | 0.00 | 75 | 1006.2 |
| 20260506005519 | 67 | 272 | 3.5 | 13.9 | 0.00 | 0.00 | 0.00 | 75 | 1005.9 |
| 20260506005016 | 67 | 337 | 0.9 | 10.4 | 0.00 | 0.00 | 0.00 | 74 | 1006.0 |
| 20260506004547 | 67 | 248 | 3.5 | 11.3 | 0.00 | 0.00 | 0.00 | 74 | 1006.1 |
| 20260506004018 | 67 | 269 | 5.2 | 12.2 | 0.00 | 0.00 | 0.00 | 73 | 1006.1 |
| 20260506003517 | 67 | 263 | 6.1 | 12.2 | 0.00 | 0.00 | 0.00 | 73 | 1006.2 |
| 20260506003032 | 68 | 267 | 6.1 | 11.3 | 0.00 | 0.00 | 0.00 | 73 | 1006.0 |
| 20260506002519 | 68 | 288 | 5.2 | 11.3 | 0.00 | 0.00 | 0.00 | 73 | 1006.1 |
| 20260506002017 | 69 | 288 | 4.3 | 11.3 | 0.00 | 0.00 | 0.00 | 74 | 1005.8 |
| 20260506001543 | 69 | 292 | 5.2 | 11.3 | 0.00 | 0.00 | 0.00 | 73 | 1005.6 |
| 20260506001018 | 69 | 271 | 4.3 | 9.6 | 0.00 | 0.00 | 0.00 | 73 | 1005.7 |
| 20260506000524 | 70 | 280 | 4.3 | 9.6 | 0.00 | 0.00 | 0.00 | 73 | 1005.7 |
| 20260506000108 | 70 | 275 | 3.5 | 9.6 | 0.00 | 0.00 | 0.00 | 73 | 1006.1 |
| 20260505235519 | 70 | 262 | 1.7 | 9.6 | 0.00 | 0.00 | 0.00 | 72 | 1005.9 |
| 20260505235017 | 71 | 307 | 2.6 | 9.6 | 0.00 | 0.00 | 0.00 | 72 | 1005.7 |
| 20260505234544 | 71 | 293 | 5.2 | 11.3 | 0.00 | 0.00 | 0.00 | 72 | 1005.7 |
| 20260505234020 | 71 | 248 | 7.0 | 11.3 | 0.00 | 0.00 | 0.00 | 71 | 1005.6 |
| 20260505233517 | 72 | 277 | 6.1 | 9.6 | 0.00 | 0.00 | 0.00 | 71 | 1005.7 |
| 20260505233034 | 72 | 300 | 3.5 | 10.4 | 0.00 | 0.00 | 0.00 | 71 | 1005.8 |
| 20260505232522 | 73 | 237 | 4.3 | 10.4 | 0.00 | 0.00 | 0.00 | 71 | 1005.7 |
| 20260505232019 | 73 | 290 | 7.0 | 10.4 | 0.00 | 0.00 | 0.00 | 70 | 1005.3 |
| 20260505231540 | 74 | 262 | 4.3 | 9.6 | 0.00 | 0.00 | 0.00 | 69 | 1005.4 |
| 20260505231019 | 74 | 248 | 2.6 | 9.6 | 0.00 | 0.00 | 0.00 | 69 | 1005.3 |
| 20260505230521 | 75 | 294 | 2.6 | 13.9 | 0.00 | 0.00 | 0.00 | 69 | 1005.4 |
| 20260505230059 | 75 | 273 | 6.1 | 13.9 | 0.00 | 0.00 | 0.00 | 69 | 1005.1 |
| 20260505225523 | 76 | 309 | 7.8 | 13.0 | 0.00 | 0.00 | 0.00 | 67 | 1005.3 |
| 20260505225017 | 76 | 267 | 5.2 | 13.0 | 0.00 | 0.00 | 0.00 | 67 | 1005.2 |
| 20260505224540 | 76 | 313 | 6.1 | 13.0 | 0.00 | 0.00 | 0.00 | 67 | 1005.3 |
| 20260505224016 | 77 | 275 | 4.3 | 12.2 | 0.00 | 0.00 | 0.00 | 67 | 1005.0 |
| 20260505223516 | 77 | 286 | 6.1 | 12.2 | 0.00 | 0.00 | 0.00 | 66 | 1005.0 |
| 20260505223032 | 78 | 248 | 6.1 | 13.0 | 0.00 | 0.00 | 0.00 | 66 | 1004.9 |
| 20260505222522 | 78 | 279 | 7.0 | 13.0 | 0.00 | 0.00 | 0.00 | 66 | 1004.9 |
| 20260505222017 | 79 | 306 | 2.6 | 10.4 | 0.00 | 0.00 | 0.00 | 64 | 1004.9 |
| 20260505221546 | 80 | 339 | 3.5 | 10.4 | 0.00 | 0.00 | 0.00 | 64 | 1004.8 |
| 20260505221017 | 80 | 270 | 2.6 | 10.4 | 0.00 | 0.00 | 0.00 | 64 | 1004.6 |
| 20260505220518 | 80 | 274 | 5.2 | 11.3 | 0.00 | 0.00 | 0.00 | 62 | 1004.5 |
| 20260505220040 | 81 | 267 | 4.3 | 11.3 | 0.00 | 0.00 | 0.00 | 61 | 1004.5 |
| 20260505215519 | 82 | 238 | 2.6 | 13.0 | 0.00 | 0.00 | 0.00 | 61 | 1004.5 |
| 20260505215020 | 82 | 217 | 2.6 | 13.0 | 0.00 | 0.00 | 0.00 | 62 | 1004.4 |
| 20260505214535 | 81 | 266 | 6.1 | 13.0 | 0.00 | 0.00 | 0.00 | 61 | 1004.2 |
| 20260505214019 | 81 | 271 | 3.5 | 9.6 | 0.00 | 0.00 | 0.00 | 63 | 1004.4 |
| 20260505213518 | 81 | 285 | 2.6 | 7.8 | 0.00 | 0.00 | 0.00 | 61 | 1004.4 |
| 20260505213037 | 81 | 238 | 0.9 | 12.2 | 0.00 | 0.00 | 0.00 | 61 | 1004.5 |
| 20260505212517 | 82 | 262 | 4.3 | 13.0 | 0.00 | 0.00 | 0.00 | 60 | 1004.7 |
| 20260505212018 | 82 | 286 | 7.0 | 13.0 | 0.00 | 0.00 | 0.00 | 60 | 1004.5 |
| 20260505211537 | 83 | 254 | 6.1 | 13.0 | 0.00 | 0.00 | 0.00 | 60 | 1004.5 |
| 20260505211017 | 83 | 288 | 5.2 | 13.0 | 0.00 | 0.00 | 0.00 | 58 | 1004.5 |
| 20260505210517 | 84 | 288 | 5.2 | 11.3 | 0.00 | 0.00 | 0.00 | 55 | 1004.5 |
| 20260505210041 | 84 | 193 | 2.6 | 10.4 | 0.00 | 0.00 | 0.00 | 55 | 1004.5 |
| 20260505205517 | 84 | 254 | 4.3 | 10.4 | 0.00 | 0.00 | 0.00 | 52 | 1004.7 |
| 20260505205019 | 83 | 292 | 1.7 | 12.2 | 0.00 | 0.00 | 0.00 | 54 | 1004.6 |
| 20260505204546 | 83 | 254 | 2.6 | 12.2 | 0.00 | 0.00 | 0.00 | 52 | 1004.6 |
| 20260505204019 | 84 | 235 | 4.3 | 12.2 | 0.00 | 0.00 | 0.00 | 50 | 1004.8 |
| 20260505203519 | 84 | 270 | 4.3 | 12.2 | 0.00 | 0.00 | 0.00 | 51 | 1004.6 |
| 20260505203047 | 84 | 301 | 4.3 | 12.2 | 0.00 | 0.00 | 0.00 | 49 | 1004.7 |
| 20260505202518 | 84 | 168 | 2.6 | 11.3 | 0.00 | 0.00 | 0.00 | 50 | 1004.8 |
| 20260505202016 | 85 | 236 | 2.6 | 11.3 | 0.00 | 0.00 | 0.00 | 50 | 1004.8 |
| 20260505201537 | 86 | 230 | 5.2 | 11.3 | 0.00 | 0.00 | 0.00 | 52 | 1004.8 |
| 20260505201018 | 86 | 238 | 0.0 | 5.2 | 0.00 | 0.00 | 0.00 | 59 | 1004.6 |
| 20260505200518 | 86 | 184 | 0.9 | 5.2 | 0.00 | 0.00 | 0.00 | 54 | 1004.8 |
| 20260505200036 | 87 | 0 | 0.0 | 9.6 | 0.00 | 0.00 | 0.00 | 56 | 1004.9 |
| 20260505195516 | 87 | 0 | 0.0 | 10.4 | 0.00 | 0.00 | 0.00 | 58 | 1004.8 |
| 20260505195018 | 86 | 180 | 1.7 | 10.4 | 0.00 | 0.00 | 0.00 | 54 | 1004.7 |
| 20260505194548 | 86 | 161 | 0.0 | 5.2 | 0.00 | 0.00 | 0.00 | 59 | 1004.8 |
| 20260505194019 | 87 | 173 | 1.7 | 7.0 | 0.00 | 0.00 | 0.00 | 59 | 1004.7 |
| 20260505193517 | 86 | 0 | 0.0 | 7.8 | 0.00 | 0.00 | 0.00 | 64 | 1004.7 |
| 20260505193037 | 86 | 157 | 2.6 | 9.6 | 0.00 | 0.00 | 0.00 | 64 | 1004.8 |
| 20260505192518 | 86 | 173 | 2.6 | 9.6 | 0.00 | 0.00 | 0.00 | 64 | 1004.9 |
| 20260505192017 | 86 | 177 | 2.6 | 9.6 | 0.00 | 0.00 | 0.00 | 67 | 1004.8 |
| 20260505191553 | 86 | 144 | 2.6 | 9.6 | 0.00 | 0.00 | 0.00 | 67 | 1004.6 |
| 20260505191024 | 86 | 163 | 2.6 | 9.6 | 0.00 | 0.00 | 0.00 | 66 | 1004.4 |
| 20260505190520 | 86 | 175 | 3.5 | 10.4 | 0.00 | 0.00 | 0.00 | 65 | 1004.6 |
| 20260505190040 | 85 | 155 | 4.3 | 10.4 | 0.00 | 0.00 | 0.00 | 66 | 1004.6 |
| 20260505185545 | 85 | 167 | 3.5 | 9.6 | 0.00 | 0.00 | 0.00 | 67 | 1004.6 |
| 20260505185021 | 84 | 148 | 3.5 | 9.6 | 0.00 | 0.00 | 0.00 | 68 | 1004.6 |
| 20260505184537 | 85 | 173 | 4.3 | 10.4 | 0.00 | 0.00 | 0.00 | 66 | 1004.7 |
| 20260505184017 | 84 | 173 | 4.3 | 10.4 | 0.00 | 0.00 | 0.00 | 67 | 1004.5 |
| 20260505183518 | 84 | 155 | 4.3 | 10.4 | 0.00 | 0.00 | 0.00 | 66 | 1004.6 |
| 20260505183035 | 84 | 221 | 3.5 | 10.4 | 0.00 | 0.00 | 0.00 | 66 | 1004.6 |
| 20260505182518 | 85 | 174 | 2.6 | 9.6 | 0.00 | 0.00 | 0.00 | 64 | 1004.6 |
| 20260505182017 | 85 | 174 | 2.6 | 9.6 | 0.00 | 0.00 | 0.00 | 65 | 1004.9 |
| 20260505181537 | 85 | 183 | 4.3 | 10.4 | 0.00 | 0.00 | 0.00 | 63 | 1004.7 |
| 20260505181017 | 85 | 170 | 4.3 | 10.4 | 0.00 | 0.00 | 0.00 | 63 | 1004.7 |
| 20260505180518 | 84 | 149 | 3.5 | 9.6 | 0.00 | 0.00 | 0.00 | 66 | 1004.7 |
| 20260505180043 | 83 | 156 | 3.5 | 10.4 | 0.00 | 0.00 | 0.00 | 69 | 1004.7 |
| 20260505175517 | 83 | 188 | 5.2 | 10.4 | 0.00 | 0.00 | 0.00 | 70 | 1004.8 |
| 20260505175018 | 83 | 156 | 4.3 | 11.3 | 0.00 | 0.00 | 0.00 | 69 | 1004.7 |
| 20260505174535 | 82 | 154 | 4.3 | 12.2 | 0.00 | 0.00 | 0.00 | 69 | 1004.8 |
| 20260505174017 | 82 | 154 | 5.2 | 12.2 | 0.00 | 0.00 | 0.00 | 70 | 1004.7 |
| 20260505173519 | 82 | 153 | 4.3 | 13.9 | 0.00 | 0.00 | 0.00 | 72 | 1004.8 |
| 20260505173035 | 81 | 141 | 5.2 | 13.9 | 0.00 | 0.00 | 0.00 | 73 | 1004.8 |
| 20260505172517 | 80 | 149 | 4.3 | 12.2 | 0.00 | 0.00 | 0.00 | 75 | 1004.8 |
| 20260505172016 | 80 | 128 | 3.5 | 12.2 | 0.00 | 0.00 | 0.00 | 76 | 1004.7 |
| 20260505171532 | 80 | 154 | 6.1 | 12.2 | 0.00 | 0.00 | 0.00 | 74 | 1004.7 |
| 20260505171017 | 80 | 142 | 4.3 | 11.3 | 0.00 | 0.00 | 0.00 | 75 | 1004.7 |
| 20260505170518 | 80 | 142 | 6.1 | 11.3 | 0.00 | 0.00 | 0.00 | 75 | 1004.6 |
| 20260505170040 | 79 | 148 | 3.5 | 10.4 | 0.00 | 0.00 | 0.00 | 77 | 1004.7 |
| 20260505165518 | 78 | 148 | 4.3 | 9.6 | 0.00 | 0.00 | 0.00 | 77 | 1004.7 |
| 20260505165019 | 78 | 149 | 4.3 | 10.4 | 0.00 | 0.00 | 0.00 | 77 | 1004.8 |
| 20260505164536 | 77 | 140 | 5.2 | 10.4 | 0.00 | 0.00 | 0.00 | 77 | 1004.8 |
| 20260505164018 | 77 | 148 | 3.5 | 8.7 | 0.00 | 0.00 | 0.00 | 77 | 1004.7 |
| 20260505163520 | 77 | 153 | 3.5 | 12.2 | 0.00 | 0.00 | 0.00 | 77 | 1004.7 |
| 20260505163037 | 77 | 131 | 4.3 | 12.2 | 0.00 | 0.00 | 0.00 | 78 | 1004.6 |
| 20260505162516 | 77 | 161 | 4.3 | 11.3 | 0.00 | 0.00 | 0.00 | 78 | 1004.7 |
| 20260505162022 | 77 | 146 | 5.2 | 11.3 | 0.00 | 0.00 | 0.00 | 78 | 1004.7 |
| 20260505161534 | 76 | 159 | 3.5 | 10.4 | 0.00 | 0.00 | 0.00 | 78 | 1004.5 |
| 20260505161018 | 76 | 175 | 3.5 | 13.0 | 0.00 | 0.00 | 0.00 | 79 | 1004.5 |
| 20260505160518 | 76 | 229 | 7.0 | 14.8 | 0.00 | 0.00 | 0.00 | 78 | 1004.5 |
| 20260505153040 | 76 | 162 | 4.3 | 14.8 | 0.00 | 0.00 | 0.00 | 79 | 1004.5 |
| 20260505152519 | 76 | 168 | 5.2 | 15.6 | 0.00 | 0.00 | 0.00 | 79 | 1004.3 |
| 20260505152024 | 76 | 181 | 7.0 | 15.6 | 0.00 | 0.00 | 0.00 | 78 | 1004.3 |
| 20260505151537 | 75 | 148 | 7.8 | 14.8 | 0.00 | 0.00 | 0.00 | 78 | 1004.3 |
| 20260505151023 | 75 | 167 | 6.1 | 15.6 | 0.00 | 0.00 | 0.00 | 79 | 1004.2 |
| 20260505150522 | 76 | 157 | 7.0 | 15.6 | 0.00 | 0.00 | 0.00 | 78 | 1004.2 |
| 20260505140518 | 72 | 148 | 5.2 | 12.2 | 0.00 | 0.00 | 0.00 | 84 | 1004.0 |
| 20260505125021 | 69 | 132 | 3.5 | 8.7 | 0.00 | 0.00 | 0.00 | 88 | 1004.0 |
| 20260505124552 | 69 | 153 | 3.5 | 9.6 | 0.00 | 0.00 | 0.00 | 88 | 1003.8 |
| 20260505124021 | 69 | 161 | 4.3 | 10.4 | 0.00 | 0.00 | 0.00 | 88 | 1003.7 |
| 20260505123520 | 69 | 146 | 4.3 | 10.4 | 0.00 | 0.00 | 0.00 | 88 | 1003.5 |
| 20260505123053 | 68 | 141 | 5.2 | 11.3 | 0.00 | 0.00 | 0.00 | 89 | 1003.4 |
| 20260505122522 | 68 | 144 | 5.2 | 11.3 | 0.00 | 0.00 | 0.00 | 89 | 1003.3 |
| 20260505122021 | 68 | 140 | 5.2 | 11.3 | 0.00 | 0.00 | 0.00 | 89 | 1003.4 |
| 20260505121612 | 68 | 150 | 5.2 | 8.7 | 0.00 | 0.00 | 0.00 | 89 | 1003.4 |
| 20260505121021 | 68 | 137 | 4.3 | 7.8 | 0.00 | 0.00 | 0.00 | 89 | 1003.2 |
| 20260505120518 | 68 | 142 | 4.3 | 7.8 | 0.00 | 0.00 | 0.00 | 88 | 1003.2 |
| 20260505120042 | 68 | 147 | 4.3 | 9.6 | 0.00 | 0.00 | 0.00 | 88 | 1003.3 |
| 20260505115520 | 68 | 155 | 5.2 | 10.4 | 0.00 | 0.00 | 0.00 | 88 | 1003.4 |
| 20260505115020 | 68 | 126 | 6.1 | 10.4 | 0.00 | 0.00 | 0.00 | 88 | 1003.4 |
| 20260505114542 | 68 | 140 | 4.3 | 8.7 | 0.00 | 0.00 | 0.00 | 89 | 1003.2 |
| 20260505114020 | 68 | 142 | 4.3 | 8.7 | 0.00 | 0.00 | 0.00 | 89 | 1003.3 |
| 20260505113517 | 68 | 144 | 3.5 | 7.8 | 0.00 | 0.00 | 0.00 | 89 | 1003.2 |
| 20260505113036 | 68 | 159 | 3.5 | 7.0 | 0.00 | 0.00 | 0.00 | 89 | 1003.2 |
| 20260505112520 | 68 | 148 | 3.5 | 7.0 | 0.00 | 0.00 | 0.00 | 89 | 1003.1 |
| 20260505112018 | 68 | 129 | 3.5 | 7.8 | 0.00 | 0.00 | 0.00 | 89 | 1003.1 |
| 20260505111539 | 68 | 167 | 3.5 | 8.7 | 0.00 | 0.00 | 0.00 | 89 | 1003.0 |
| 20260505111018 | 68 | 146 | 4.3 | 8.7 | 0.00 | 0.00 | 0.00 | 89 | 1003.2 |
| 20260505110521 | 68 | 157 | 4.3 | 7.8 | 0.00 | 0.00 | 0.00 | 89 | 1003.1 |
| 20260505102020 | 68 | 139 | 4.3 | 8.7 | 0.00 | 0.00 | 0.00 | 87 | 1003.0 |
| 20260505101541 | 68 | 141 | 4.3 | 8.7 | 0.00 | 0.00 | 0.00 | 87 | 1003.2 |
| 20260505101020 | 69 | 142 | 3.5 | 7.0 | 0.00 | 0.00 | 0.00 | 87 | 1003.3 |
| 20260505100518 | 69 | 153 | 2.6 | 8.7 | 0.00 | 0.00 | 0.00 | 87 | 1003.3 |
| 20260505100043 | 69 | 153 | 2.6 | 8.7 | 0.00 | 0.00 | 0.00 | 87 | 1003.3 |
| 20260505095520 | 69 | 141 | 2.6 | 8.7 | 0.00 | 0.00 | 0.00 | 86 | 1003.3 |
| 20260505095022 | 69 | 139 | 3.5 | 10.4 | 0.00 | 0.00 | 0.00 | 87 | 1003.3 |
| 20260505094536 | 69 | 140 | 3.5 | 10.4 | 0.00 | 0.00 | 0.00 | 86 | 1003.0 |
| 20260505094019 | 69 | 140 | 4.3 | 11.3 | 0.00 | 0.00 | 0.00 | 86 | 1002.9 |
| 20260505093521 | 69 | 91 | 3.5 | 11.3 | 0.00 | 0.00 | 0.00 | 85 | 1002.8 |
| 20260505093040 | 69 | 145 | 4.3 | 10.4 | 0.00 | 0.00 | 0.00 | 85 | 1002.8 |
| 20260505092520 | 70 | 135 | 4.3 | 10.4 | 0.00 | 0.00 | 0.00 | 85 | 1002.9 |
| 20260505092018 | 70 | 146 | 4.3 | 11.3 | 0.00 | 0.00 | 0.00 | 85 | 1002.9 |
| 20260505091555 | 70 | 143 | 4.3 | 11.3 | 0.00 | 0.00 | 0.00 | 85 | 1003.0 |
| 20260505091021 | 70 | 150 | 5.2 | 10.4 | 0.00 | 0.00 | 0.00 | 84 | 1003.0 |
| 20260505090520 | 70 | 136 | 6.1 | 11.3 | 0.00 | 0.00 | 0.00 | 84 | 1003.2 |
| 20260505090053 | 70 | 130 | 5.2 | 11.3 | 0.00 | 0.00 | 0.00 | 84 | 1003.3 |
| 20260505085520 | 70 | 154 | 5.2 | 8.7 | 0.00 | 0.00 | 0.00 | 83 | 1003.4 |
| 20260505085024 | 70 | 142 | 4.3 | 9.6 | 0.00 | 0.00 | 0.00 | 83 | 1003.4 |
| 20260505084536 | 70 | 140 | 4.3 | 13.0 | 0.00 | 0.00 | 0.00 | 83 | 1003.5 |
| 20260505084018 | 70 | 130 | 5.2 | 13.0 | 0.00 | 0.00 | 0.00 | 82 | 1003.4 |
| 20260505083519 | 70 | 136 | 5.2 | 9.6 | 0.00 | 0.00 | 0.00 | 82 | 1003.4 |
| 20260505083046 | 71 | 144 | 4.3 | 10.4 | 0.00 | 0.00 | 0.00 | 82 | 1003.6 |
| 20260505082520 | 71 | 141 | 5.2 | 10.4 | 0.00 | 0.00 | 0.00 | 81 | 1003.6 |
| 20260505082018 | 71 | 144 | 5.2 | 10.4 | 0.00 | 0.00 | 0.00 | 81 | 1003.7 |
| 20260505081540 | 71 | 153 | 3.5 | 10.4 | 0.00 | 0.00 | 0.00 | 81 | 1003.6 |
| 20260505081018 | 71 | 149 | 6.1 | 10.4 | 0.00 | 0.00 | 0.00 | 81 | 1003.6 |
| 20260505080524 | 71 | 138 | 3.5 | 8.7 | 0.00 | 0.00 | 0.00 | 80 | 1003.6 |
| 20260505080049 | 71 | 142 | 4.3 | 10.4 | 0.00 | 0.00 | 0.00 | 80 | 1003.7 |
| 20260505075520 | 71 | 109 | 4.3 | 10.4 | 0.00 | 0.00 | 0.00 | 80 | 1003.7 |
| 20260505075020 | 71 | 141 | 3.5 | 11.3 | 0.00 | 0.00 | 0.00 | 79 | 1003.7 |
| 20260505074543 | 71 | 148 | 4.3 | 11.3 | 0.00 | 0.00 | 0.00 | 79 | 1003.8 |
| 20260505074022 | 72 | 139 | 4.3 | 10.4 | 0.00 | 0.00 | 0.00 | 79 | 1003.9 |
| 20260505073520 | 72 | 127 | 2.6 | 8.7 | 0.00 | 0.00 | 0.00 | 79 | 1004.0 |
| 20260505073047 | 72 | 157 | 3.5 | 10.4 | 0.00 | 0.00 | 0.00 | 78 | 1003.9 |
| 20260505072518 | 72 | 110 | 3.5 | 10.4 | 0.00 | 0.00 | 0.00 | 78 | 1004.2 |
| 20260505072020 | 72 | 143 | 4.3 | 9.6 | 0.00 | 0.00 | 0.00 | 78 | 1004.3 |
| 20260505071541 | 72 | 142 | 5.2 | 12.2 | 0.00 | 0.00 | 0.00 | 78 | 1004.4 |
| 20260505071022 | 72 | 144 | 4.3 | 12.2 | 0.00 | 0.00 | 0.00 | 78 | 1004.4 |
| 20260505070518 | 72 | 142 | 4.3 | 9.6 | 0.00 | 0.00 | 0.00 | 78 | 1004.4 |
| 20260505070037 | 72 | 117 | 3.5 | 9.6 | 0.00 | 0.00 | 0.00 | 78 | 1004.5 |
| 20260505065517 | 72 | 168 | 3.5 | 10.4 | 0.00 | 0.00 | 0.00 | 77 | 1004.4 |
| 20260505065020 | 72 | 128 | 3.5 | 10.4 | 0.00 | 0.00 | 0.00 | 77 | 1004.5 |
| 20260505064540 | 73 | 141 | 2.6 | 9.6 | 0.00 | 0.00 | 0.00 | 77 | 1004.7 |
| 20260505064019 | 73 | 156 | 3.5 | 10.4 | 0.00 | 0.00 | 0.00 | 77 | 1004.7 |
| 20260505063519 | 73 | 159 | 3.5 | 10.4 | 0.00 | 0.00 | 0.00 | 76 | 1004.7 |
| 20260505063048 | 73 | 138 | 4.3 | 10.4 | 0.00 | 0.00 | 0.00 | 76 | 1004.8 |
| 20260505062519 | 73 | 159 | 5.2 | 12.2 | 0.00 | 0.00 | 0.00 | 76 | 1004.8 |
| 20260505062021 | 73 | 128 | 3.5 | 12.2 | 0.00 | 0.00 | 0.00 | 76 | 1004.8 |
| 20260505061539 | 73 | 98 | 3.5 | 10.4 | 0.00 | 0.00 | 0.00 | 76 | 1004.8 |
| 20260505061022 | 73 | 150 | 4.3 | 9.6 | 0.00 | 0.00 | 0.00 | 76 | 1004.9 |
| 20260505060518 | 74 | 107 | 3.5 | 9.6 | 0.00 | 0.00 | 0.00 | 75 | 1005.0 |
| 20260505060035 | 74 | 128 | 3.5 | 10.4 | 0.00 | 0.00 | 0.00 | 75 | 1005.0 |
| 20260505055519 | 74 | 143 | 4.3 | 10.4 | 0.00 | 0.00 | 0.00 | 75 | 1005.1 |
| 20260505055020 | 74 | 149 | 4.3 | 9.6 | 0.00 | 0.00 | 0.00 | 75 | 1005.1 |
| 20260505054549 | 74 | 132 | 5.2 | 9.6 | 0.00 | 0.00 | 0.00 | 74 | 1005.0 |
| 20260505054018 | 74 | 138 | 4.3 | 9.6 | 0.00 | 0.00 | 0.00 | 74 | 1005.0 |
| 20260505053519 | 74 | 143 | 3.5 | 10.4 | 0.00 | 0.00 | 0.00 | 74 | 1005.0 |
| 20260505053041 | 74 | 120 | 6.1 | 11.3 | 0.00 | 0.00 | 0.00 | 74 | 1005.0 |
| 20260505052519 | 74 | 128 | 6.1 | 11.3 | 0.00 | 0.00 | 0.00 | 74 | 1005.0 |
| 20260505052024 | 74 | 130 | 5.2 | 11.3 | 0.00 | 0.00 | 0.00 | 74 | 1004.9 |
| 20260505051544 | 74 | 135 | 4.3 | 8.7 | 0.00 | 0.00 | 0.00 | 74 | 1005.1 |
| 20260505051019 | 74 | 139 | 3.5 | 8.7 | 0.00 | 0.00 | 0.00 | 75 | 1004.9 |
| 20260505050525 | 74 | 140 | 3.5 | 8.7 | 0.00 | 0.00 | 0.00 | 74 | 1005.0 |
| 20260505041545 | 73 | 139 | 2.6 | 8.7 | 0.00 | 0.00 | 0.00 | 76 | 1005.2 |
| 20260505041017 | 73 | 90 | 2.6 | 8.7 | 0.00 | 0.00 | 0.00 | 76 | 1005.2 |
| 20260505040520 | 73 | 144 | 2.6 | 8.7 | 0.00 | 0.00 | 0.00 | 76 | 1005.2 |
| 20260505040041 | 73 | 117 | 2.6 | 8.7 | 0.00 | 0.00 | 0.00 | 76 | 1005.2 |
| 20260505035524 | 73 | 117 | 2.6 | 7.0 | 0.00 | 0.00 | 0.00 | 76 | 1005.2 |
| 20260505035017 | 73 | 68 | 1.7 | 7.8 | 0.00 | 0.00 | 0.00 | 76 | 1005.3 |
| 20260505034538 | 73 | 115 | 2.6 | 7.8 | 0.00 | 0.00 | 0.00 | 76 | 1005.2 |
| 20260505034018 | 73 | 53 | 3.5 | 7.8 | 0.00 | 0.00 | 0.00 | 76 | 1005.2 |
| 20260505033518 | 73 | 149 | 2.6 | 7.8 | 0.00 | 0.00 | 0.00 | 75 | 1005.2 |
| 20260505033036 | 73 | 113 | 2.6 | 7.8 | 0.00 | 0.00 | 0.00 | 75 | 1005.2 |
| 20260505032526 | 73 | 137 | 2.6 | 10.4 | 0.00 | 0.00 | 0.00 | 75 | 1005.2 |
| 20260505032019 | 73 | 111 | 2.6 | 13.0 | 0.00 | 0.00 | 0.00 | 75 | 1005.2 |
| 20260505031540 | 73 | 155 | 1.7 | 13.0 | 0.00 | 0.00 | 0.00 | 75 | 1005.1 |
| 20260505031019 | 74 | 100 | 5.2 | 13.0 | 0.00 | 0.00 | 0.00 | 75 | 1005.0 |
| 20260505030522 | 73 | 138 | 4.3 | 11.3 | 0.00 | 0.00 | 0.00 | 75 | 1005.2 |
| 20260505030051 | 74 | 79 | 2.6 | 9.6 | 0.00 | 0.00 | 0.00 | 75 | 1005.3 |